Location: Unspecified
(42.1900°N, 71.3291°W)
Time: 15:50:33
(UTC-04:00)

CZ-3 Stage 3 - Visible Passes

Search period start: 22 May 2018 00:00
Search period end: 01 June 2018 00:00
Orbit: 423 x 34773 km, 30.9° (Epoch: 21 May)

Date Brightness Start Highest point End Pass type
(mag) Time Alt. Az. Time Alt. Az. Time Alt. Az.
22 May 5.9 05:00:19 10° SW 06:17:35 12° SW 12:18:19 10° SE visible
23 May 7.9 00:35:58 11° SSE 08:23:02 62° S 08:42:38 10° E visible
23 May 9.3 23:52:26 10° ESE 04:02:18 39° SE 04:59:39 10° E visible
25 May 6.0 04:42:33 10° SW 06:06:56 13° SW 12:08:42 10° SE visible
26 May 7.9 00:34:14 13° SSE 08:13:11 63° S 08:33:02 10° E visible
26 May 9.2 23:37:32 10° ESE 03:51:54 40° SE 04:50:08 10° E visible
28 May 6.0 04:25:47 10° SW 05:56:14 13° SW 11:59:03 10° SE visible
29 May 8.0 00:32:23 14° SSE 08:03:18 64° S 08:23:24 10° E visible
29 May 9.2 23:22:40 10° ESE 03:41:25 41° SE 04:40:33 10° E visible
31 May 6.0 04:09:46 10° SW 05:45:28 14° SW 11:49:23 10° SE visible
